TimeCST,TemperatureF,Dew PointF,Humidity,Sea Level PressureIn,VisibilityMPH,Wind Direction,Wind SpeedMPH,Gust SpeedMPH,PrecipitationIn,Events,Conditions,WindDirDegrees,DateUTC
12:55 AM,56.7,56.1,98,30.23,10.0,Calm,Calm,-,N/A,,Overcast,0,2012-12-01 06:55:00
1:55 AM,56.5,56.3,99,30.23,10.0,Calm,Calm,-,N/A,,Overcast,0,2012-12-01 07:55:00
2:55 AM,54.0,54.0,100,30.23,10.0,Calm,Calm,-,N/A,,Scattered Clouds,0,2012-12-01 08:55:00
3:55 AM,55.4,54.9,98,30.22,10.0,ENE,4.6,-,N/A,,Clear,60,2012-12-01 09:55:00
4:55 AM,53.2,52.0,95,30.24,10.0,Calm,Calm,-,N/A,,Clear,0,2012-12-01 10:55:00
5:55 AM,52.0,51.6,99,30.25,10.0,NNW,3.5,-,N/A,,Clear,330,2012-12-01 11:55:00
6:55 AM,50.0,50.0,100,30.28,10.0,Calm,Calm,-,N/A,,Clear,0,2012-12-01 12:55:00
7:55 AM,57.0,55.4,94,30.29,10.0,NE,3.5,-,N/A,,Clear,40,2012-12-01 13:55:00
8:55 AM,63.3,57.9,83,30.30,10.0,East,6.9,-,N/A,,Clear,100,2012-12-01 14:55:00
9:55 AM,67.3,59.7,77,30.30,10.0,ESE,6.9,-,N/A,,Clear,110,2012-12-01 15:55:00
10:04 AM,68.0,59.0,73,30.30,10.0,East,6.9,-,N/A,,Light Drizzle,100,2012-12-01 16:04:00
10:14 AM,68.0,60.8,78,30.30,10.0,ESE,8.1,-,N/A,,Clear,110,2012-12-01 16:14:00
10:55 AM,68.9,61.0,76,30.30,10.0,ESE,6.9,-,0.00,,Clear,120,2012-12-01 16:55:00
10:56 AM,69.8,60.8,73,30.29,10.0,ESE,8.1,-,N/A,,Light Drizzle,120,2012-12-01 16:56:00
11:17 AM,69.8,60.8,73,30.29,10.0,ESE,10.4,-,N/A,,Clear,120,2012-12-01 17:17:00
11:55 AM,70.2,62.6,77,30.27,10.0,ESE,9.2,-,0.00,,Partly Cloudy,120,2012-12-01 17:55:00
12:55 PM,70.9,62.8,75,30.25,10.0,ESE,11.5,-,N/A,,Clear,120,2012-12-01 18:55:00
1:55 PM,70.7,62.1,74,30.24,10.0,SE,10.4,-,N/A,,Clear,130,2012-12-01 19:55:00
2:02 PM,71.6,60.8,69,30.24,10.0,ESE,9.2,-,N/A,,Light Drizzle,120,2012-12-01 20:02:00
2:12 PM,71.6,60.8,69,30.24,10.0,SE,8.1,-,N/A,,Clear,140,2012-12-01 20:12:00
2:55 PM,70.7,61.3,72,30.23,10.0,ESE,9.2,-,0.00,,Clear,120,2012-12-01 20:55:00
3:55 PM,69.6,61.2,74,30.24,10.0,SE,4.6,-,N/A,,Clear,140,2012-12-01 21:55:00
4:24 PM,68.0,60.8,78,30.23,10.0,SE,3.5,-,N/A,Rain,Light Rain,130,2012-12-01 22:24:00
4:26 PM,68.0,60.8,78,30.23,10.0,Calm,Calm,-,N/A,,Clear,0,2012-12-01 22:26:00
4:55 PM,66.7,60.6,81,30.24,10.0,SE,3.5,-,0.00,,Clear,130,2012-12-01 22:55:00
5:55 PM,64.9,59.5,83,30.25,10.0,ESE,4.6,-,N/A,,Clear,120,2012-12-01 23:55:00
6:55 PM,56.1,55.0,96,30.25,10.0,Calm,Calm,-,N/A,,Clear,0,2012-12-02 00:55:00
7:55 PM,54.5,54.0,98,30.26,10.0,Calm,Calm,-,N/A,,Clear,0,2012-12-02 01:55:00
8:55 PM,53.6,53.2,99,30.26,10.0,NNE,4.6,-,N/A,,Clear,20,2012-12-02 02:55:00
9:55 PM,52.2,51.8,99,30.26,10.0,North,4.6,-,N/A,,Clear,360,2012-12-02 03:55:00
10:55 PM,50.5,50.4,99,30.25,10.0,NNE,3.5,-,N/A,,Clear,30,2012-12-02 04:55:00
11:55 PM,49.8,49.6,99,30.26,10.0,North,5.8,-,N/A,,Clear,10,2012-12-02 05:55:00